Location: Aldenham
(51.6667°N, 0.3500°W)
Time: 21:34:06
(UTC+00:00)

Vanguard 2 Rocket - Pass Details

Date: 16 February 2026
Orbit: 553 x 3286 km, 32.9° (Epoch: 8 March)

Event Time Altitude Azimuth Distance (km) Brightness Sun altitude
Rises 13:31:43 0° 232° (SW) 7,115 12.4 24.0°
Reaches altitude 10° 13:37:41 10° 223° (SW) 5,850 12.5 23.7°
Maximum altitude 13:50:58 29° 173° (S) 3,569 11.2 22.9°
Drops below altitude 10° 14:00:08 10° 118° (ESE) 3,993 10.3 22.2°
Sets 14:03:17 0° 107° (ESE) 4,621 10.4 22.0°
